Погода в Ганьоа

Кот-д’Ивуар     6°07′43″N   5°56′50″W
темп.,
°C
ветер,
м/с
пор.,
м/с
влажн.,
%
обл.,
%
осадки,
мм/ч
давл.,
гПа
погр.,
м
31 июля, сб
сб3100:00+21ююз289932 0.4 1016300
03:00+21юз1710054 0.0 1015318
06:00+21юз1610069 0.0 1015283
09:00+23юз259167 0.0 1017488
12:00+29юз2257100 0.1 10151440
15:00+28ююз237035 1.6 10131044
18:00+24ююз26965 4.4 1014328
21:00+22ююз299943 0.6 1017465
1 августа, вс
вс100:00+21юз299979 0.6 1017539
03:00+21юз2898100 0.3 1016539
06:00+21юз279981 0.5 1016447
09:00+22юз279778 0.7 1018435
12:00+25юз248764 2.8 1017795
15:00+25юз259125 2.8 1015772
18:00+23ююз259760 6.8 1015317
21:00+22ююз189998 1.2 1018381
2 августа, пн
пн200:00+21ююз1710041 1.2 1018322
03:00+21ююз1710064 0.0 1016356
06:00+20зюз1410051 0.0 1017171
09:00+23зюз238750 0.0 1019554
12:00+29юз225771 0.1 10171449
15:00+29з1255100 0.0 10141442
18:00+25ююв11829 0.3 101411
21:00+22ю1492100 0.0 1016104
3 августа, вт
вт300:00+21ююз169767 0.0 1016235
03:00+20юз289730 0.0 1015349
06:00+20юз179897 0.0 1016306
09:00+24зюз2474100 0.0 1018706
12:00+26зюз236999 0.1 10171108
15:00+26юз248723 2.1 1014644
18:00+24зюз149421 5.9 1015115
21:00+21ююз159899 0.3 1017147
4 августа, ср
ср400:00+21ююз289893 0.3 1017315
03:00+21ююз179894 0.0 1015337
06:00+20зюз1499100 0.0 1017157
09:00+23юз2588100 0.1 1018552
12:00+28юз236297 0.3 10171332
15:00+29ююз2355100 0.2 10141783
18:00+25ююз277989 0.4 1015298
21:00+22ю298862 0.1 1018436